Weather History for KSHL - June, 2013

Change the Weather History Date:

Friday, June 21, 2013

  Actual Average (WUND) Record (WUND)
Temperature  
Mean Temperature 80 °F -  
Max Temperature 91 °F - - (-1)
Min Temperature 69 °F - - (-1)
Cooling Degree Days 15    
Growing Degree Days 30 (Base 50)    
Moisture  
Dew Point 70 °F    
Average Humidity 72    
Maximum Humidity 94    
Minimum Humidity 41    
Precipitation  
Precipitation 0.00 in - - ()
Sea Level Pressure  
Sea Level Pressure 29.83 in    
Wind  
Wind Speed 14 mph (SE)    
Max Wind Speed 29 mph    
Max Gust Speed 37 mph    
Visibility 10 miles    
Events      
Averages and records for this station are not official NWS values.
T = Trace of Precipitation, MM = Missing Value Source: NWS Daily Summary

Daily Weather History Graph

Daily Weather History Graph

Search for Another Location

Airport or City:

Trip Planner

Search our weather history database for the weather conditions in past years. The results will help you decide how hot, cold, wet, or windy it might be!

Date:

Astronomy

Jun. 21, 2013 Rise Set
Actual Time 5:43 AM CDT 9:06 PM CDT
Civil Twilight 5:07 AM CDT 9:42 PM CDT
Nautical Twilight 4:21 AM CDT 10:28 PM CDT
Astronomical Twilight 3:23 AM CDT 11:26 PM CDT
Moon 7:16 PM CDT (6/21) 4:02 AM CDT (6/21)
Length of Visible Light 16h 34m
Length of Day
15h 23m
Waxing Gibbous, 95% of the Moon is Illuminated
Jun 21
Waxing Gibbous
Jun 23
Full
Jun 29
Last Quarter
Jul 8
New
Jul 15
First Quarter

Hourly Weather History & Observations

Time (CDT) Temp. Heat Index Dew Point Humidity Pressure Visibility Wind Dir Wind Speed Gust Speed Precip Events Conditions
12:15 AM 78.8 °F - 69.8 °F 74% 29.85 in 10.0 mi SE 15.0 mph - N/A   Overcast
12:35 AM 77.0 °F - 69.8 °F 78% 29.84 in 10.0 mi SE 13.8 mph - N/A   Mostly Cloudy
12:55 AM 77.0 °F - 69.8 °F 78% 29.83 in 10.0 mi SSE 12.7 mph 18.4 mph N/A   Overcast
1:15 AM 78.8 °F - 71.6 °F 78% 29.83 in 10.0 mi SSE 15.0 mph - N/A   Overcast
1:35 AM 78.8 °F - 71.6 °F 78% 29.82 in 10.0 mi SSE 17.3 mph - N/A   Overcast
1:55 AM 78.8 °F - 71.6 °F 78% 29.80 in 10.0 mi South 19.6 mph - N/A   Mostly Cloudy
2:15 AM 78.8 °F - 71.6 °F 78% 29.78 in 10.0 mi South 17.3 mph 27.6 mph N/A   Scattered Clouds
2:35 AM 78.8 °F - 71.6 °F 78% 29.81 in 10.0 mi South 13.8 mph 20.7 mph N/A   Partly Cloudy
2:55 AM 78.8 °F - 71.6 °F 78% 29.81 in 10.0 mi South 10.4 mph 19.6 mph N/A   Mostly Cloudy
3:15 AM 78.8 °F - 73.4 °F 83% 29.82 in 10.0 mi South 11.5 mph - N/A   Mostly Cloudy
3:35 AM 77.0 °F - 73.4 °F 89% 29.82 in 10.0 mi South 9.2 mph - N/A   Mostly Cloudy
3:55 AM 77.0 °F - 73.4 °F 89% 29.82 in 10.0 mi South 11.5 mph - N/A   Partly Cloudy
4:15 AM 77.0 °F - 73.4 °F 89% 29.82 in 10.0 mi South 10.4 mph - N/A   Clear
4:35 AM 77.0 °F - 73.4 °F 89% 29.82 in 10.0 mi South 5.8 mph 12.7 mph N/A   Scattered Clouds
4:55 AM 77.0 °F - 73.4 °F 89% 29.83 in 10.0 mi South 8.1 mph - N/A   Mostly Cloudy
5:15 AM 75.2 °F - 73.4 °F 94% 29.83 in 10.0 mi South 5.8 mph - N/A   Mostly Cloudy
5:35 AM 77.0 °F - 73.4 °F 89% 29.83 in 10.0 mi SSW 4.6 mph - N/A   Mostly Cloudy
5:55 AM 75.2 °F - 73.4 °F 94% 29.84 in 9.0 mi Calm Calm - N/A   Mostly Cloudy
6:15 AM 75.2 °F - 73.4 °F 94% 29.85 in 9.0 mi SSE 3.5 mph - N/A   Scattered Clouds
6:35 AM 75.2 °F - 73.4 °F 94% 29.85 in 9.0 mi SSE 3.5 mph - N/A   Mostly Cloudy
6:55 AM 75.2 °F - 73.4 °F 94% 29.85 in 9.0 mi Calm Calm - N/A   Scattered Clouds
7:15 AM 77.0 °F - 73.4 °F 89% 29.86 in 9.0 mi Calm Calm - N/A   Clear
7:35 AM 77.0 °F - 73.4 °F 89% 29.86 in 9.0 mi Calm Calm - N/A   Clear
7:55 AM 77.0 °F - 73.4 °F 89% 29.87 in 9.0 mi ENE 5.8 mph - N/A   Scattered Clouds
8:15 AM 77.0 °F - 73.4 °F 89% 29.88 in 9.0 mi East 9.2 mph - N/A   Mostly Cloudy
8:35 AM 71.6 °F - 64.4 °F 78% 29.89 in 10.0 mi ESE 16.1 mph 26.5 mph N/A   Overcast
8:55 AM 71.6 °F - 64.4 °F 78% 29.90 in 10.0 mi ESE 19.6 mph - N/A   Mostly Cloudy
9:15 AM 69.8 °F - 62.6 °F 78% 29.90 in 10.0 mi East 16.1 mph 21.9 mph N/A   Partly Cloudy
9:35 AM 69.8 °F - 62.6 °F 78% 29.90 in 10.0 mi East 19.6 mph - N/A   Mostly Cloudy
9:55 AM 69.8 °F - 64.4 °F 83% 29.88 in 10.0 mi ESE 23.0 mph 28.8 mph N/A   Scattered Clouds
10:15 AM 71.6 °F - 64.4 °F 78% 29.88 in 10.0 mi ESE 19.6 mph 26.5 mph N/A   Clear
10:35 AM 75.2 °F - 68.0 °F 78% 29.87 in 10.0 mi SE 18.4 mph 27.6 mph N/A   Clear
10:55 AM 77.0 °F - 68.0 °F 74% 29.90 in 10.0 mi SE 18.4 mph 25.3 mph N/A   Scattered Clouds
11:15 AM 78.8 °F - 68.0 °F 69% 29.87 in 10.0 mi SSE 21.9 mph 29.9 mph N/A   Scattered Clouds
11:35 AM 78.8 °F - 69.8 °F 74% 29.85 in 9.0 mi SE 24.2 mph 33.4 mph N/A   Clear
11:55 AM 80.6 °F 83.9 °F 69.8 °F 70% 29.84 in 10.0 mi SSE 23.0 mph 28.8 mph N/A   Clear
12:15 PM 82.4 °F 86.3 °F 69.8 °F 66% 29.85 in 9.0 mi SE 25.3 mph 32.2 mph N/A   Clear
12:35 PM 84.2 °F 88.4 °F 69.8 °F 62% 29.85 in 9.0 mi SSE 28.8 mph 34.5 mph N/A   Clear
12:55 PM 82.4 °F 86.3 °F 69.8 °F 66% 29.83 in 9.0 mi SE 26.5 mph 35.7 mph N/A   Clear
1:15 PM 84.2 °F 88.4 °F 69.8 °F 62% 29.82 in 10.0 mi SE 24.2 mph 31.1 mph N/A   Clear
1:35 PM 86.0 °F 90.4 °F 69.8 °F 58% 29.81 in 10.0 mi SE 25.3 mph 31.1 mph N/A   Clear
1:55 PM 86.0 °F 90.4 °F 69.8 °F 58% 29.78 in 9.0 mi SE 21.9 mph 32.2 mph N/A   Clear
2:15 PM 87.8 °F 93.8 °F 71.6 °F 58% 29.80 in 9.0 mi SSE 26.5 mph - N/A   Clear
2:35 PM 87.8 °F 92.6 °F 69.8 °F 55% 29.81 in 10.0 mi SSE 25.3 mph 33.4 mph N/A   Clear
2:55 PM 86.0 °F 91.8 °F 71.6 °F 62% 29.82 in 9.0 mi SE 24.2 mph 36.8 mph N/A   Partly Cloudy
3:15 PM 86.0 °F 91.8 °F 71.6 °F 62% 29.81 in 10.0 mi SSE 23.0 mph 35.7 mph N/A   Scattered Clouds
3:35 PM 87.8 °F 93.8 °F 71.6 °F 58% 29.79 in 10.0 mi South 27.6 mph - N/A   Mostly Cloudy
3:55 PM 89.6 °F 94.7 °F 69.8 °F 52% 29.78 in 8.0 mi South 25.3 mph 34.5 mph N/A   Scattered Clouds
4:15 PM 91.4 °F 94.0 °F 66.2 °F 43% 29.79 in 9.0 mi South 24.2 mph 34.5 mph N/A   Clear
4:35 PM 91.4 °F 94.0 °F 66.2 °F 43% 29.79 in 9.0 mi South 23.0 mph 32.2 mph N/A   Clear
4:55 PM 91.4 °F 93.2 °F 64.4 °F 41% 29.81 in 10.0 mi South 18.4 mph 27.6 mph N/A   Clear
5:15 PM 91.4 °F 94.0 °F 66.2 °F 43% 29.82 in 9.0 mi South 15.0 mph 23.0 mph N/A   Clear
5:35 PM 89.6 °F 93.4 °F 68.0 °F 49% 29.83 in 10.0 mi SSW 15.0 mph - N/A   Clear
5:55 PM 89.6 °F 93.4 °F 68.0 °F 49% 29.84 in 10.0 mi South 9.2 mph - N/A   Scattered Clouds
6:15 PM 89.6 °F 94.7 °F 69.8 °F 52% 29.82 in 10.0 mi South 13.8 mph - N/A   Partly Cloudy
6:35 PM 89.6 °F 94.7 °F 69.8 °F 52% 29.82 in 10.0 mi SSE 9.2 mph 18.4 mph N/A   Clear
6:55 PM 89.6 °F 94.7 °F 69.8 °F 52% 29.83 in 9.0 mi SSE 11.5 mph - N/A   Clear
7:15 PM 89.6 °F 96.2 °F 71.6 °F 55% 29.83 in 9.0 mi SE 8.1 mph - N/A   Clear
7:35 PM 87.8 °F 93.8 °F 71.6 °F 58% 29.82 in 9.0 mi SE 6.9 mph - N/A   Clear
7:55 PM 87.8 °F 93.8 °F 71.6 °F 58% 29.82 in - East 8.1 mph - N/A   Clear
8:15 PM 80.6 °F 82.3 °F 64.4 °F 58% 29.85 in 9.0 mi NNE 23.0 mph 29.9 mph N/A   Clear
8:35 PM 77.0 °F - 64.4 °F 65% 29.85 in 10.0 mi NE 18.4 mph 32.2 mph N/A   Partly Cloudy
8:55 PM 75.2 °F - 66.2 °F 73% 29.85 in 10.0 mi NE 23.0 mph 33.4 mph N/A   Mostly Cloudy
9:15 PM 75.2 °F - 68.0 °F 78% 29.84 in 10.0 mi ENE 20.7 mph 27.6 mph N/A   Partly Cloudy
9:35 PM 75.2 °F - 69.8 °F 83% 29.82 in 10.0 mi East 11.5 mph 20.7 mph N/A   Scattered Clouds
9:55 PM 75.2 °F - 69.8 °F 83% 29.83 in 10.0 mi ENE 11.5 mph 20.7 mph N/A   Mostly Cloudy
10:15 PM 77.0 °F - 69.8 °F 78% 29.83 in 10.0 mi ENE 15.0 mph - N/A   Mostly Cloudy
10:35 PM 78.8 °F - 71.6 °F 78% 29.81 in 10.0 mi ENE 10.4 mph - N/A   Mostly Cloudy
10:55 PM 78.8 °F - 71.6 °F 78% 29.80 in 10.0 mi ENE 10.4 mph - N/A   Scattered Clouds
11:15 PM 78.8 °F - 71.6 °F 78% 29.80 in 10.0 mi ENE 8.1 mph - N/A   Scattered Clouds
11:35 PM 78.8 °F - 73.4 °F 83% 29.80 in 10.0 mi ENE 5.8 mph - N/A   Mostly Cloudy
11:55 PM 78.8 °F - 73.4 °F 83% 29.80 in 10.0 mi East 10.4 mph - N/A   Scattered Clouds